[TLELIST] Archives

 

[TLELIST] Current TLEs

July 13th 2023 PDT

HST 1 20580U 90037B 23193.05005036 .00003838 00000-0 19893-3 0 9996 2 20580 28.4695 102.5450 0002381 289.9189 94.8593 15.13445982625494 ISS (ZARYA) 1 25544U 98067A 23193.85132576 .00008865 00000-0 16485-3 0 9999 2 25544 51.6419 201.3435 0000251 80.9860 340.3946 15.49693145405774 CXO 1 25867U 99040B 23194.39986049 .00000241 00000-0 00000+0 0 9993 2 25867 37.4408 193.4301 9057484 265.1951 0.1694 0.37810316 24435 ...Continue Reading

[TLELIST] Current TLEs

July 13th 2023 PDT

HST 1 20580U 90037B 23193.05005036 .00003838 00000-0 19893-3 0 9996 2 20580 28.4695 102.5450 0002381 289.9189 94.8593 15.13445982625494 ISS (ZARYA) 1 25544U 98067A 23193.85132576 .00008865 00000-0 16485-3 0 9999 2 25544 51.6419 201.3435 0000251 80.9860 340.3946 15.49693145405774 CXO 1 25867U 99040B 23194.39986049 .00000241 00000-0 00000+0 0 9993 2 25867 37.4408 193.4301 9057484 265.1951 0.1694 0.37810316 24435 ...Continue Reading

[TLELIST] Current TLEs

July 12th 2023 PDT

HST 1 20580U 90037B 23193.05005036 .00003838 00000-0 19893-3 0 9996 2 20580 28.4695 102.5450 0002381 289.9189 94.8593 15.13445982625494 ISS (ZARYA) 1 25544U 98067A 23193.41523521 .00009039 00000-0 16797-3 0 9995 2 25544 51.6415 203.5026 0000330 78.8169 68.0599 15.49685569405708 CXO 1 25867U 99040B 23194.39986049 .00000241 00000-0 00000+0 0 9993 2 25867 37.4408 193.4301 9057484 265.1951 0.1694 0.37810316 24435 ...Continue Reading

[TLELIST] Current TLEs

July 12th 2023 PDT

HST 1 20580U 90037B 23193.05005036 .00003838 00000-0 19893-3 0 9996 2 20580 28.4695 102.5450 0002381 289.9189 94.8593 15.13445982625494 ISS (ZARYA) 1 25544U 98067A 23193.41523521 .00009039 00000-0 16797-3 0 9995 2 25544 51.6415 203.5026 0000330 78.8169 68.0599 15.49685569405708 CXO 1 25867U 99040B 23194.39986049 .00000241 00000-0 00000+0 0 9993 2 25867 37.4408 193.4301 9057484 265.1951 0.1694 0.37810316 24435 ...Continue Reading

[TLELIST] Current TLEs

July 11th 2023 PDT

HST 1 20580U 90037B 23191.86916583 .00003317 00000-0 17058-3 0 9994 2 20580 28.4693 110.4047 0002364 276.0420 142.0193 15.13436422625310 ISS (ZARYA) 1 25544U 98067A 23192.44888453 .00009587 00000-0 17775-3 0 9990 2 25544 51.6413 208.2874 0000213 101.0412 51.1708 15.49669613405559 CXO 1 25867U 99040B 23194.39946457 .00000241 00000-0 00000+0 0 9992 2 25867 37.4430 193.4418 9057506 265.1834 0.1155 0.37811746 24434 ...Continue Reading

[TLELIST] Current TLEs

July 10th 2023 PDT

HST 1 20580U 90037B 23190.50393878 .00003328 00000-0 17125-3 0 9997 2 20580 28.4691 119.4914 0002363 259.7240 265.2977 15.13427511625112 ISS (ZARYA) 1 25544U 98067A 23191.40640406 .00008879 00000-0 16536-3 0 9996 2 25544 51.6410 213.4505 0000239 113.2858 339.3258 15.49647752405395 CXO 1 25867U 99040B 23191.75656981 .00000250 00000-0 00000+0 0 9999 2 25867 37.4567 193.8380 9055716 264.8468 0.3440 0.37811306 24427 ...Continue Reading

[TLELIST] Current TLEs

July 10th 2023 PDT

HST 1 20580U 90037B 23190.50393878 .00003328 00000-0 17125-3 0 9997 2 20580 28.4691 119.4914 0002363 259.7240 265.2977 15.13427511625112 ISS (ZARYA) 1 25544U 98067A 23191.40640406 .00008879 00000-0 16536-3 0 9996 2 25544 51.6410 213.4505 0000239 113.2858 339.3258 15.49647752405395 CXO 1 25867U 99040B 23191.75656981 .00000250 00000-0 00000+0 0 9999 2 25867 37.4567 193.8380 9055716 264.8468 0.3440 0.37811306 24427 ...Continue Reading

[TLELIST] Current TLEs

July 9th 2023 PDT

HST 1 20580U 90037B 23189.18124677 .00003939 00000-0 20457-3 0 9998 2 20580 28.4689 128.2945 0002383 243.6949 260.5368 15.13420247624919 ISS (ZARYA) 1 25544U 98067A 23190.39584491 .00010445 00000-0 19319-3 0 9998 2 25544 51.6406 218.4550 0000228 95.6224 115.6612 15.49631003405237 CXO 1 25867U 99040B 23191.75656981 .00000250 00000-0 00000+0 0 9999 2 25867 37.4567 193.8380 9055716 264.8468 0.3440 0.37811306 24427 ...Continue Reading

[TLELIST] Current TLEs

July 9th 2023 PDT

HST 1 20580U 90037B 23189.18124677 .00003939 00000-0 20457-3 0 9998 2 20580 28.4689 128.2945 0002383 243.6949 260.5368 15.13420247624919 ISS (ZARYA) 1 25544U 98067A 23190.39584491 .00010445 00000-0 19319-3 0 9998 2 25544 51.6406 218.4550 0000228 95.6224 115.6612 15.49631003405237 CXO 1 25867U 99040B 23191.75656981 .00000250 00000-0 00000+0 0 9999 2 25867 37.4567 193.8380 9055716 264.8468 0.3440 0.37811306 24427 ...Continue Reading

[TLELIST] Current TLEs

July 9th 2023 PDT

HST 1 20580U 90037B 23189.18124677 .00003939 00000-0 20457-3 0 9998 2 20580 28.4689 128.2945 0002383 243.6949 260.5368 15.13420247624919 ISS (ZARYA) 1 25544U 98067A 23190.39584491 .00010445 00000-0 19319-3 0 9998 2 25544 51.6406 218.4550 0000228 95.6224 115.6612 15.49631003405237 CXO 1 25867U 99040B 23191.75656981 .00000250 00000-0 00000+0 0 9999 2 25867 37.4567 193.8380 9055716 264.8468 0.3440 0.37811306 24427 ...Continue Reading
  • This mailing list is a public mailing list - anyone may join or leave, at any time.
  • This mailing list is announce-only.

International Space Station (ISS) / Hubble Space Telescope (HST) / Chandra X-Ray Observatory Orbital Data via EMAIL

Privacy Policy:

Private list